Location: Weatherford
(35.5260°N, 98.7070°W)
Time: 19:21:02
(UTC-05:00)

Amateur Radio Satellites - All Passes

Search period start: 31 October 2014 18:51
Search period end: 01 November 2014 18:51
Location: Weatherford, 35.5260°N, 98.7070°W

Satellite Date Start Highest point End Downlink Frequencies (MHz)
Time Altitude Azimuth
STRAND 1 31 Oct 19:06:13 19:07:28 11° 91° (E) 19:08:44 ?
Hamsat 31 Oct 19:16:30 19:20:16 32° 263° (W) 19:24:02 145.90 MHz
ISS 31 Oct 19:22:01 19:23:03 11° 234° (SW) 19:24:06 145.800 FM
JAS-2 31 Oct 19:22:35 19:27:56 31° 267° (W) 19:33:54 435.800 - 435.900 CW/SSB, 435.910 FM
KITSAT 1 31 Oct 19:30:34 19:36:48 24° 45° (NE) 19:43:00 435.175 FM
SO-50 31 Oct 19:44:43 19:47:41 16° 47° (NE) 19:50:40 436.795 FM
Oscar 10/S400 31 Oct 19:48:46 20:16:37 66° 193° (SSW) 06:03:36 145.825 - 145.975 CW/USB, Beacon 145.810 USB
SO-67 31 Oct 19:56:15 19:59:40 83° 78° (ENE) 20:03:07 435.3500 MHz FM
OPAL 31 Oct 20:25:50 20:28:29 15° 298° (WNW) 20:31:09 ?
STRAND 1 31 Oct 20:41:59 20:47:07 72° 285° (WNW) 20:52:12 ?
RS-15 31 Oct 20:46:40 20:56:33 40° 107° (ESE) 21:06:16 29.354 - 29.394 USB, Beacon 29.352 USB
HO-68 31 Oct 20:51:33 20:57:55 36° 65° (ENE) 21:04:18 435.675 MHz FM
SO-50 31 Oct 21:23:51 21:28:41 66° 243° (WSW) 21:33:31 436.795 FM
KITSAT 1 31 Oct 21:24:57 21:33:02 79° 245° (WSW) 21:41:04 435.175 FM
UKube-1 31 Oct 21:25:47 21:28:12 15° 66° (ENE) 21:30:37 145.840 MHz, 145.915 MHz
Oscar 11 31 Oct 21:58:51 22:02:39 31° 72° (ENE) 22:06:28 145.825 FM, Beacon 2401.500 USB
UOSAT-12 31 Oct 22:06:07 22:10:21 32° 53° (NE) 22:14:30 437.025 FM, 437.400 FM
FUNcube-1 31 Oct 22:16:59 22:20:25 22° 70° (ENE) 22:23:49 145.950 - 145.970 MHz USB
MaSat-1 31 Oct 22:20:35 22:24:24 44° 110° (ESE) 22:27:53 437.345 MHz
HO-68 31 Oct 22:38:53 22:45:27 39° 261° (W) 22:52:06 435.675 MHz FM
RS-15 31 Oct 22:57:49 23:08:28 53° 307° (NW) 23:19:07 29.354 - 29.394 USB, Beacon 29.352 USB
UKube-1 31 Oct 22:59:50 23:03:59 43° 260° (W) 23:08:09 145.840 MHz, 145.915 MHz
ZACube-1 31 Oct 23:09:10 23:13:43 87° 77° (ENE) 23:18:13 437.345 MHz
KITSAT 1 31 Oct 23:24:27 23:27:07 12° 261° (W) 23:29:46 435.175 FM
Oscar 11 31 Oct 23:35:50 23:38:51 19° 266° (W) 23:41:53 145.825 FM, Beacon 2401.500 USB
UOSAT-12 31 Oct 23:46:32 23:50:19 25° 249° (WSW) 23:54:03 437.025 FM, 437.400 FM
FUNcube-1 31 Oct 23:52:37 23:56:36 30° 263° (W) 00:00:32 145.950 - 145.970 MHz USB
MaSat-1 31 Oct 23:58:31 23:59:52 12° 302° (WNW) 00:01:10 437.345 MHz
RS-15 01 Nov 01:17:49 01:24:12 17° 336° (NNW) 01:30:39 29.354 - 29.394 USB, Beacon 29.352 USB
JAS-1B 01 Nov 01:22:20 01:24:08 11° 91° (E) 01:25:58 435.800 - 435.900 CW/SSB
Oscar 16 01 Nov 02:22:51 02:27:13 28° 96° (E) 02:31:33 437.025 USB, Beacon 2401.1428
Sapphire 01 Nov 02:32:25 02:37:36 49° 111° (ESE) 02:42:49 437.095 MHz 1200 baud AX-25 AFSK
AO-Echo 01 Nov 02:53:11 02:57:47 29° 96° (E) 03:02:18 ?
PCSat 01 Nov 02:53:45 02:59:09 86° 115° (ESE) 03:04:36 145.825 MHz
Uribyol 2 01 Nov 02:57:03 03:01:13 24° 96° (E) 03:05:21 436.500 FM
ITAMSAT 1 01 Nov 03:04:59 03:09:24 27° 96° (E) 03:13:45 435.822 SSB
JAS-1B 01 Nov 03:07:45 03:15:10 74° 103° (ESE) 03:24:01 435.800 - 435.900 CW/SSB
Oscar 19 01 Nov 03:14:18 03:19:27 88° 284° (WNW) 03:24:34 437.125 CW, 437.150 USB
RS-15 01 Nov 03:38:27 03:43:29 14° 15° (NNE) 03:48:35 29.354 - 29.394 USB, Beacon 29.352 USB
PANSAT 01 Nov 03:43:11 03:45:12 14° 161° (SSE) 03:47:14 not established
AO-27 01 Nov 03:52:09 03:57:24 84° 103° (ESE) 04:02:36 436.795 MHz FM
Oscar 16 01 Nov 04:02:05 04:06:28 30° 291° (WNW) 04:10:51 437.025 USB, Beacon 2401.1428
Gurwin Techsat 1B 01 Nov 04:11:09 04:16:27 67° 102° (ESE) 04:21:42 435.225 FM
TMSAT-1 01 Nov 04:17:09 04:22:21 55° 100° (E) 04:27:31 436.925 FM
Sapphire 01 Nov 04:17:11 04:21:16 21° 308° (NW) 04:25:23 437.095 MHz 1200 baud AX-25 AFSK
AO-Echo 01 Nov 04:31:51 04:36:26 30° 291° (WNW) 04:40:57 ?
Uribyol 2 01 Nov 04:36:02 04:40:42 35° 290° (WNW) 04:45:20 436.500 FM
PCSat 01 Nov 04:40:37 04:43:16 14° 313° (NW) 04:45:55 145.825 MHz
ITAMSAT 1 01 Nov 04:44:17 04:48:49 31° 291° (WNW) 04:53:20 435.822 SSB
Uosat F 01 Nov 04:47:15 04:49:11 12° 92° (E) 04:51:07 435.120 FM
AO-7 01 Nov 04:54:39 05:01:44 30° 97° (E) 05:08:47 29.400 - 29.500 MHz
JAS-1B 01 Nov 05:00:04 05:05:15 21° 296° (WNW) 05:11:03 435.800 - 435.900 CW/SSB
PANSAT 01 Nov 05:21:34 05:24:49 26° 173° (S) 05:28:03 not established
AO-27 01 Nov 05:34:59 05:36:08 11° 299° (WNW) 05:37:18 436.795 MHz FM
RS-15 01 Nov 05:50:11 06:00:26 39° 47° (NE) 06:11:00 29.354 - 29.394 USB, Beacon 29.352 USB
Gurwin Techsat 1B 01 Nov 05:53:08 05:55:47 14° 297° (WNW) 05:58:27 435.225 FM
Saudisat 1A 01 Nov 05:53:45 05:57:56 47° 115° (ESE) 06:02:09 436.775 MHz
OPAL 01 Nov 05:57:07 06:02:14 76° 73° (ENE) 06:07:17 ?
TMSAT-1 01 Nov 05:58:31 06:01:46 17° 296° (WNW) 06:05:01 436.925 FM
STRAND 1 01 Nov 06:19:02 06:21:21 13° 63° (ENE) 06:23:41 ?
Uosat F 01 Nov 06:23:21 06:28:21 64° 286° (WNW) 06:33:18 435.120 FM
JAS-2 01 Nov 06:33:45 06:41:23 51° 98° (E) 06:48:37 435.800 - 435.900 CW/SSB, 435.910 FM
AO-7 01 Nov 06:46:43 06:54:43 54° 293° (WNW) 07:02:45 29.400 - 29.500 MHz
PANSAT 01 Nov 07:01:17 07:04:32 26° 186° (S) 07:07:46 not established
Hamsat 01 Nov 07:04:28 07:08:36 51° 100° (E) 07:12:44 145.90 MHz
Saudisat 1A 01 Nov 07:34:49 07:37:44 17° 312° (NW) 07:40:39 436.775 MHz
OPAL 01 Nov 07:40:55 07:41:32 10° 267° (W) 07:42:09 ?
STRAND 1 01 Nov 07:54:49 07:59:55 68° 258° (WSW) 08:05:03 ?
RS-15 01 Nov 08:02:18 08:13:17 61° 248° (WSW) 08:24:46 29.354 - 29.394 USB, Beacon 29.352 USB
MaSat-1 01 Nov 08:08:02 08:10:06 24° 62° (ENE) 08:12:06 437.345 MHz
JAS-2 01 Nov 08:19:16 08:25:57 32° 295° (WNW) 08:32:25 435.800 - 435.900 CW/SSB, 435.910 FM
PANSAT 01 Nov 08:42:04 08:44:08 14° 199° (SSW) 08:46:11 not established
Hamsat 01 Nov 08:42:32 08:44:04 12° 294° (WNW) 08:45:37 145.90 MHz
SO-67 01 Nov 08:55:07 08:58:28 50° 284° (WNW) 09:01:48 435.3500 MHz FM
KITSAT 1 01 Nov 09:57:15 10:02:44 20° 103° (ESE) 10:08:12 435.175 FM
HO-68 01 Nov 10:09:14 10:16:10 49° 101° (E) 10:23:02 435.675 MHz FM
ISS 01 Nov 10:23:13 10:26:31 78° 319° (NW) 10:29:51 145.800 FM
UKube-1 01 Nov 10:50:54 10:54:58 38° 99° (E) 10:59:00 145.840 MHz, 145.915 MHz
ZACube-1 01 Nov 11:02:27 11:05:29 19° 95° (E) 11:08:30 437.345 MHz
Sapphire 01 Nov 11:23:56 11:28:10 23° 52° (NE) 11:32:22 437.095 MHz 1200 baud AX-25 AFSK
Oscar 11 01 Nov 11:24:49 11:29:08 83° 283° (WNW) 11:33:27 145.825 FM, Beacon 2401.500 USB
SO-50 01 Nov 11:35:43 11:40:11 85° 119° (ESE) 11:44:47 436.795 FM
FUNcube-1 01 Nov 11:44:10 11:48:19 64° 101° (E) 11:52:25 145.950 - 145.970 MHz USB
PCSat 01 Nov 11:44:59 11:49:59 36° 57° (ENE) 11:54:55 145.825 MHz
KITSAT 1 01 Nov 11:49:12 11:57:15 74° 299° (WNW) 12:05:21 435.175 FM
HO-68 01 Nov 11:57:32 12:03:30 29° 297° (WNW) 12:09:27 435.675 MHz FM
ISS 01 Nov 12:02:16 12:03:41 12° 335° (NNW) 12:05:06 145.800 FM
UOSAT-12 01 Nov 12:15:29 12:18:38 19° 109° (ESE) 12:21:51 437.025 FM, 437.400 FM
UKube-1 01 Nov 12:28:04 12:30:49 17° 293° (WNW) 12:33:33 145.840 MHz, 145.915 MHz
ZACube-1 01 Nov 12:38:20 12:41:52 27° 289° (WNW) 12:45:22 437.345 MHz
Oscar 19 01 Nov 12:53:51 12:54:41 10° 62° (ENE) 12:55:30 437.125 CW, 437.150 USB
Sapphire 01 Nov 13:06:37 13:11:48 47° 249° (WSW) 13:16:56 437.095 MHz 1200 baud AX-25 AFSK
SO-50 01 Nov 13:19:50 13:21:23 12° 317° (NW) 13:22:56 436.795 FM
PCSat 01 Nov 13:28:42 13:33:11 27° 253° (WSW) 13:37:38 145.825 MHz
AO-27 01 Nov 13:33:01 13:33:44 10° 61° (ENE) 13:34:27 436.795 MHz FM
Oscar 16 01 Nov 13:36:59 13:41:27 31° 69° (ENE) 13:45:54 437.025 USB, Beacon 2401.1428
KITSAT 1 01 Nov 13:49:07 13:54:05 17° 320° (NW) 13:59:05 435.175 FM
JAS-1B 01 Nov 13:52:14 13:57:34 40° 70° (ENE) 14:02:51 435.800 - 435.900 CW/SSB
UOSAT-12 01 Nov 13:54:03 13:58:26 42° 305° (NW) 14:02:54 437.025 FM, 437.400 FM
AO-Echo 01 Nov 14:03:20 14:07:30 27° 68° (ENE) 14:11:46 ?
Uribyol 2 01 Nov 14:12:02 14:16:25 28° 68° (ENE) 14:20:48 436.500 FM
ITAMSAT 1 01 Nov 14:20:05 14:24:38 31° 69° (ENE) 14:29:12 435.822 SSB
Saudisat 1A 01 Nov 14:23:53 14:26:57 18° 49° (NE) 14:30:00 436.775 MHz
Oscar 19 01 Nov 14:28:07 14:33:16 84° 257° (WSW) 14:38:25 437.125 CW, 437.150 USB
AO-27 01 Nov 15:07:13 15:12:26 87° 256° (WSW) 15:17:42 436.795 MHz FM
Oscar 16 01 Nov 15:16:24 15:20:43 27° 264° (W) 15:25:04 437.025 USB, Beacon 2401.1428
Gurwin Techsat 1B 01 Nov 15:29:11 15:34:29 78° 75° (ENE) 15:39:48 435.225 FM
TMSAT-1 01 Nov 15:34:51 15:40:04 64° 74° (ENE) 15:45:20 436.925 FM
AO-Echo 01 Nov 15:41:47 15:46:07 30° 264° (W) 15:50:35 ?
JAS-1B 01 Nov 15:44:13 15:48:27 21° 265° (W) 15:52:38 435.800 - 435.900 CW/SSB
AO-7 01 Nov 15:50:44 15:57:47 33° 61° (ENE) 16:04:51 29.400 - 29.500 MHz
Uribyol 2 01 Nov 15:51:10 15:55:45 31° 263° (W) 16:00:21 436.500 FM
Uosat F 01 Nov 15:57:52 16:00:17 14° 63° (ENE) 16:02:42 435.120 FM
ITAMSAT 1 01 Nov 15:59:41 16:04:03 27° 264° (W) 16:08:28 435.822 SSB
Saudisat 1A 01 Nov 16:02:30 16:06:42 44° 245° (WSW) 16:10:54 436.775 MHz
JAS-2 01 Nov 16:45:10 16:48:46 16° 57° (ENE) 16:52:33 435.800 - 435.900 CW/SSB, 435.910 FM
ISS 01 Nov 16:54:29 16:57:31 32° 36° (NE) 17:00:33 145.800 FM
Gurwin Techsat 1B 01 Nov 17:14:07 17:14:57 10° 270° (W) 17:15:47 435.225 FM
TMSAT-1 01 Nov 17:17:58 17:20:22 13° 269° (W) 17:22:48 436.925 FM
Uosat F 01 Nov 17:33:30 17:38:29 63° 258° (WSW) 17:43:30 435.120 FM
AO-7 01 Nov 17:42:13 17:50:11 52° 258° (WSW) 17:58:12 29.400 - 29.500 MHz
Hamsat 01 Nov 17:55:20 17:58:44 25° 71° (ENE) 18:02:08 145.90 MHz
OPAL 01 Nov 18:10:44 18:14:44 24° 98° (E) 18:18:43 ?
JAS-2 01 Nov 18:26:27 18:32:38 85° 257° (WSW) 18:39:45 435.800 - 435.900 CW/SSB, 435.910 FM
ISS 01 Nov 18:31:28 18:34:04 21° 230° (SW) 18:36:39 145.800 FM
